Temp
27 25 24 23 23 21 21 21 21 20 18 17 17 17 17 17 17 18 19 20 20 19 18 18 19 18 17 17 16 17 17 16
26 25 24 24 22 21 21 20 20 19 18 18 17 17 17 17 17 18 20 20 19 19 18 17 18 18 18 17 16 16 15 16
25 24 24 24 24 22 21 21 20 19 19 19 19 18 18 18 17 17 18 18 18 18 18 18 18 18 17 16 17 15 14 15
25 24 24 24 24 23 21 21 21 20 19 19 18 18 17 18 17 17 17 17 18 18 18 18 18 18 17 18 17 16 15 13
23 23 23 23 23 23 22 21 21 20 19 19 19 19 19 19 19 18 17 16 17 17 18 17 17 17 17 18 18 17 16 14
22 22 22 22 22 22 23 21 20 20 19 19 19 19 20 20 19 19 17 17 16 17 17 17 17 17 17 17 17 17 16 15
21 20 20 20 20 21 22 23 22 20 19 18 19 19 19 20 20 19 19 17 17 16 17 17 17 17 17 16 18 17 16 15
20 20 20 19 19 19 19 21 21 22 19 19 18 19 19 19 20 20 19 18 17 17 17 17 17 16 16 16 17 15 15 14
19 20 19 19 19 19 18 18 19 21 21 19 19 19 19 19 19 20 19 19 18 17 17 17 16 16 15 16 14 14 12 13
19 19 19 18 19 19 18 18 18 18 19 19 19 19 19 19 19 19 19 19 19 17 16 16 15 15 15 17 15 15 13 11
19 19 19 18 18 18 18 17 17 17 17 17 18 18 18 18 18 19 19 18 18 16 16 17 15 14 15 13 13 13 12 10
19 19 18 18 17 17 17 17 17 17 17 17 17 16 17 18 18 18 19 17 17 16 16 15 14 13 12 12 11 10 9 8
18 18 17 17 17 17 16 16 16 16 16 17 17 17 17 17 17 18 18 17 16 15 16 13 13 12 12 11 9 9 9 8
18 18 18 17 17 16 16 16 15 15 16 16 17 18 17 17 17 17 17 16 15 15 14 13 12 11 10 9 9 9 9 9
17 18 18 17 16 15 15 15 15 15 15 15 16 17 17 17 17 17 16 16 15 14 13 12 11 10 9 8 8 9 8 8
17 17 18 17 16 15 15 15 14 14 14 15 15 15 16 17 16 16 16 15 14 12 11 10 9 9 8 8 8 8 8 6
17 17 17 16 16 15 15 14 14 13 13 15 14 14 15 15 14 14 13 12 11 11 10 9 8 8 7 8 8 6 5 4
16 17 17 16 16 15 14 14 13 13 13 14 14 14 14 14 13 12 11 11 10 9 8 8 7 7 7 8 7 5 4 3
16 16 16 16 16 15 14 13 13 13 13 13 14 14 13 13 12 11 11 10 9 8 8 7 7 6 7 7 6 5 3 3
Height
760 758 758 759 761 762 764 765 769 773 777 781 783 786 788 790 791 794 797 799 802 805 808 810 814 817 818 820 823 825 827 828
754 754 755 757 756 756 755 758 757 764 768 771 774 773 780 782 783 783 785 788 792 796 800 804 807 809 812 813 816 820 823 824
754 755 754 752 751 748 748 748 752 754 758 762 767 771 771 773 775 775 777 781 784 787 790 794 798 803 805 806 807 813 819 820
756 755 753 750 747 747 745 744 747 748 754 760 763 766 765 766 763 765 766 772 774 777 779 784 789 793 795 798 800 803 810 815
760 757 753 750 748 744 743 742 744 744 746 750 752 752 754 749 757 758 760 763 766 769 772 774 777 784 787 788 793 797 801 805
759 758 754 751 746 744 741 739 739 739 739 740 742 744 741 743 747 748 748 750 754 759 763 766 768 771 776 778 783 789 793 799
760 760 757 753 748 744 740 737 734 734 735 734 734 732 732 735 734 735 737 740 742 745 748 754 758 763 765 768 775 778 784 788
761 757 754 753 749 744 741 737 732 730 729 728 727 724 724 724 726 727 728 730 729 730 737 743 747 752 756 761 767 773 778 782
758 756 755 751 748 744 740 737 733 727 724 722 719 718 716 714 716 716 716 717 718 724 728 733 736 741 747 754 760 764 772 774
757 755 751 750 746 741 738 735 731 726 720 716 711 709 707 703 703 705 706 708 712 714 717 723 727 730 736 741 747 751 762 768
755 752 750 747 745 740 735 732 728 722 716 711 706 701 696 694 695 693 696 699 703 706 708 714 718 722 729 734 742 748 755 764
754 749 744 743 740 737 733 729 725 720 713 705 699 692 688 686 685 686 688 690 691 696 702 706 709 715 721 730 737 745 754 761
752 748 744 740 737 734 729 724 719 714 708 700 691 683 678 677 677 679 681 682 682 688 696 700 704 709 714 722 728 738 748 756
749 744 740 737 734 729 726 721 715 708 701 693 684 678 672 670 668 670 673 676 678 684 687 690 694 702 708 717 723 731 743 750
745 741 737 733 730 727 722 717 711 704 696 690 681 673 668 663 662 662 665 669 672 675 680 686 690 697 703 711 722 725 738 748
742 737 733 730 726 722 718 713 708 702 694 687 682 672 665 660 656 656 658 661 665 669 673 681 685 692 699 706 716 720 728 741
736 731 729 726 723 718 714 709 703 699 693 686 679 673 666 662 658 652 655 656 660 666 671 675 680 687 695 701 707 717 725 734
730 727 724 722 717 713 708 703 698 695 690 683 677 671 667 662 661 658 654 657 659 662 670 674 677 684 691 698 700 715 723 732
725 723 721 717 713 708 703 699 695 690 685 679 674 668 664 661 659 657 657 658 659 662 667 672 675 680 685 692 696 711 720 729
Wind_Speed
18 21 26 28 28 29 31 38 40 39 35 32 28 28 30 30 31 31 35 38 38 36 29 28 28 21 19 18 18 23 20 15
18 17 19 20 25 28 35 31 39 36 34 33 31 34 29 31 33 39 45 43 40 39 31 27 29 25 23 23 19 24 19 20
14 14 17 17 25 32 32 36 32 37 35 34 29 26 29 31 32 39 41 40 40 40 38 32 29 27 24 25 29 20 13 23
11 15 18 20 19 24 28 32 33 33 32 24 24 22 23 25 35 37 40 41 44 45 40 36 33 34 30 33 34 31 18 22
10 14 18 22 24 23 18 24 26 29 30 31 32 31 29 36 30 32 33 36 42 42 41 39 37 35 33 39 39 38 29 20
14 14 16 19 27 28 26 16 19 28 30 36 33 34 37 32 30 32 34 36 40 40 40 38 39 39 39 40 42 42 38 25
15 19 20 19 24 29 28 25 18 17 29 33 38 38 37 32 34 32 33 34 36 42 43 42 40 39 41 42 43 46 42 37
14 18 21 22 23 24 26 25 26 20 18 29 35 41 39 39 38 34 32 31 35 41 42 41 42 42 39 42 42 41 42 40
17 16 19 23 24 25 25 25 25 30 24 24 31 37 37 38 39 39 36 36 36 34 39 41 40 38 37 40 40 39 39 38
18 19 20 20 26 27 26 28 26 27 30 29 31 34 37 40 41 39 39 36 34 35 37 41 38 40 42 42 42 39 38 32
19 17 21 19 21 24 26 27 26 28 30 30 30 35 38 41 40 40 38 36 33 33 37 40 39 38 42 40 37 34 35 29
18 18 24 23 22 22 22 25 26 27 29 29 29 33 35 36 38 38 37 33 34 36 37 37 37 38 36 34 33 32 31 31
18 19 21 21 22 24 24 23 26 29 30 31 29 31 26 27 30 33 33 31 35 37 38 31 32 32 36 35 34 36 37 36
18 16 15 20 22 23 25 25 27 28 32 33 31 26 19 23 29 29 29 32 34 36 38 35 34 35 35 35 37 40 40 41
17 15 15 18 19 21 24 26 27 28 31 33 33 28 24 25 26 28 34 33 36 39 36 33 33 34 35 37 39 43 42 40
17 17 16 19 21 22 25 26 27 29 30 30 33 33 28 23 25 29 35 36 38 36 33 32 32 35 38 41 43 48 47 42
20 20 16 15 20 24 24 25 26 27 28 29 30 30 25 18 21 27 28 28 29 31 30 33 34 33 39 46 49 45 43 42
21 20 13 17 25 25 27 26 26 25 25 28 27 26 25 18 17 19 22 24 27 27 28 32 32 32 46 51 52 44 43 40
18 11 19 26 30 28 27 26 25 24 26 26 25 22 23 21 17 19 20 23 27 28 30 31 32 38 53 55 52 45 41 44
Wind_Direction
271 257 248 242 236 229 227 230 231 228 224 224 224 228 231 229 230 230 231 232 230 228 227 228 228 225 219 213 213 210 206 187
283 283 279 260 239 231 228 224 225 218 215 215 220 222 227 232 231 232 236 233 230 229 226 228 225 221 219 216 208 207 200 191
308 328 322 289 257 240 230 227 223 221 218 220 222 229 233 232 231 234 234 232 231 230 228 224 223 222 221 215 214 191 197 192
337 350 344 342 314 268 241 234 228 223 222 223 224 230 232 234 230 233 231 229 231 231 227 223 222 220 219 222 214 203 191 199
1 2 359 354 350 358 288 252 238 229 219 218 219 222 227 231 233 232 230 229 229 228 225 224 220 221 220 224 221 213 203 189
6 4 4 356 354 356 352 320 253 234 221 221 223 227 234 236 233 233 226 225 226 225 224 220 220 219 219 221 218 216 212 206
9 4 359 354 353 353 348 338 322 256 231 227 225 230 232 232 231 230 228 224 222 221 221 219 220 218 218 220 225 221 218 214
1 358 354 352 343 336 337 333 324 315 255 238 233 234 235 235 237 234 229 225 222 220 214 213 216 218 216 221 223 222 220 216
350 351 346 344 340 335 326 323 313 315 297 268 252 245 241 240 240 237 235 231 227 222 212 213 214 210 211 220 223 220 222 216
340 336 337 336 338 334 327 320 314 309 303 293 277 262 249 243 241 239 237 235 233 221 209 213 209 210 216 217 216 213 218 212
334 331 329 327 332 331 331 326 319 312 307 298 285 273 261 250 243 238 234 231 227 214 202 215 209 208 215 210 209 208 205 197
323 321 326 326 330 333 334 332 330 326 320 305 295 283 265 250 242 240 235 227 216 208 206 212 207 204 202 201 198 191 177 174
312 311 311 318 325 328 330 333 333 329 324 318 306 297 272 247 242 240 237 218 213 205 211 205 200 195 199 190 175 172 173 168
306 302 304 315 320 325 328 331 331 331 328 324 317 308 265 246 242 238 233 211 209 209 208 201 192 192 186 180 174 171 174 171
301 298 302 309 315 322 327 329 330 332 333 326 319 317 291 253 242 228 218 213 211 206 203 195 188 180 176 171 172 169 168 168
298 297 304 309 318 324 326 327 327 330 333 333 323 317 307 281 231 218 213 211 205 201 189 187 176 177 174 169 170 167 165 166
294 288 297 307 316 317 319 321 322 325 328 332 332 318 304 290 248 207 203 193 189 188 180 175 172 173 173 174 169 164 163 160
294 292 285 304 317 309 309 315 315 317 321 329 332 325 304 283 251 217 192 183 181 174 175 176 170 172 175 177 169 164 161 159
296 291 298 304 309 297 303 308 308 310 313 319 323 323 306 268 235 211 194 189 184 177 177 177 172 176 177 176 168 164 160 163